Location: Dötzum
(52.0808°N, 9.8063°E)
Time: 05:30:41
(UTC+00:00)

Cosmos 2297 - Pass Details

Date: 27 May 2022
Orbit: 834 x 859 km, 71.0° (Epoch: 26 June)

Event Time Altitude Azimuth Distance (km) Brightness Sun altitude
Rises 01:10:58 0° 327° (NNW) 3,447 7.3 -12.6°
Reaches altitude 10° 01:13:27 10° 325° (NW) 2,507 6.5 -12.4°
Maximum altitude 01:19:09 66° 245° (WSW) 938 3.7 -12.0°
Drops below altitude 10° 01:24:49 10° 164° (SSE) 2,487 5.7 -11.6°
Enters shadow 01:26:48 - 162° (SSE) 3,238 6.3 -11.4°
